{"data":{"norad_id":56332,"intl_designator":"2023-058R","name":"STARLINK-5093","alt_names":[],"object_type":"PAYLOAD","status":"ACTIVE","operator":null,"country":"US","launch_date":"2023-04-27","launch_site_code":"AFWTR","launch_vehicle":null,"mission":null,"orbit_class":"UNKNOWN","rcs_meters":null,"size_class":null,"mass_kg":null,"dimensions":null,"purposes":["comms"],"wikipedia_slug":null,"has_3d_model":false,"image_url":null,"decayed_at":null,"tle_current":{"epoch":"2026-05-24T23:33:36.260352Z","epoch_age_seconds":87012,"freshness":"FRESH","line1":"1 56332U 23058R   26144.98166968 -.00011689  00000+0 -80613-3 0  9994","line2":"2 56332  97.4447 144.9429 0001692  68.6703 291.4704 15.05708493169608","mean_motion":15.05708493,"eccentricity":0.0001692,"inclination_deg":97.4447,"raan_deg":144.9429,"arg_perigee_deg":68.6703,"mean_anomaly_deg":291.4704,"bstar":-0.00080613,"rev_number":16960,"period_min":95.63604155084,"perigee_km":548.15961065858,"apogee_km":550.50386607964,"semimajor_km":6927.4687383691,"source":"CELESTRAK","updated_at":"2026-05-25T13:38:18.002645Z"}}}